Temp
18 18 18 17 18 18 19 21 21 21 21 21 21 21 22 21 22 22 18 19 19 19 18 18 18 18 18 18 18 18 18 18 18 18 18 18 18 18 17 17 18 17 17 18 18 18 18 18 18
18 18 17 17 19 20 21 21 21 23 22 21 22 21 21 20 17 17 17 19 19 19 18 18 18 18 18 18 18 18 18 18 18 18 17 18 18 18 18 17 17 17 17 17 18 18 18 18 18
18 17 17 20 19 21 21 21 21 22 21 22 21 20 19 18 17 16 18 18 19 19 18 18 18 18 18 18 18 18 18 18 18 18 18 18 18 18 18 17 17 17 17 18 18 18 18 18 17
17 17 17 20 21 19 19 20 22 22 22 20 20 19 17 17 16 17 18 18 19 19 19 18 18 18 18 18 18 18 18 18 18 17 17 17 18 18 17 17 17 17 17 17 18 18 18 17 17
17 17 20 22 21 20 20 20 23 23 22 21 20 18 16 16 17 18 19 18 19 19 19 18 18 18 18 18 18 18 18 18 18 17 17 17 18 17 17 16 17 17 17 17 18 18 18 18 18
18 18 21 22 21 20 19 18 21 21 19 19 19 19 17 17 18 18 18 19 19 19 19 18 18 18 18 18 18 18 18 18 17 17 17 17 17 17 17 17 17 17 17 17 17 18 18 18 18
20 20 22 22 21 20 18 17 19 20 20 19 19 19 16 15 18 18 18 19 19 19 19 19 18 18 18 18 18 18 18 18 17 17 17 17 17 17 17 17 16 17 17 17 17 17 17 17 17
19 21 21 22 22 20 19 17 17 19 19 19 19 19 17 15 18 17 18 18 18 19 19 19 18 17 18 18 18 17 18 18 17 17 17 17 17 17 17 17 16 17 17 17 17 17 17 17 17
19 22 21 22 22 20 19 20 17 18 19 20 20 19 18 15 17 16 16 16 17 18 19 18 18 18 18 18 18 18 18 17 17 17 17 17 17 17 16 16 17 17 17 17 17 18 17 17 17
21 22 22 22 21 20 19 19 17 19 20 18 17 17 16 15 16 16 16 16 16 18 19 18 18 18 18 17 17 18 18 18 18 17 17 18 17 17 16 17 17 17 17 17 17 18 18 17 18
21 22 22 22 20 19 19 18 18 19 20 19 17 16 16 16 16 16 17 17 18 18 18 19 18 19 18 18 18 18 18 18 18 18 18 18 18 17 17 17 17 17 17 17 18 18 18 18 18
22 22 23 21 20 19 19 18 19 18 20 19 17 17 17 17 17 17 17 17 19 19 19 19 19 19 19 18 18 18 18 18 18 18 18 18 18 18 18 18 17 18 18 18 18 18 18 18 18
22 23 23 21 20 21 19 19 20 19 19 18 17 17 17 18 17 17 18 19 19 20 19 19 19 19 19 19 19 18 18 18 18 18 18 18 18 18 18 18 18 18 18 18 18 18 18 18 18
23 23 24 22 21 22 21 21 21 20 18 18 17 18 18 18 17 17 18 20 20 20 19 20 19 19 19 19 19 18 18 18 18 18 18 18 18 18 18 18 18 18 18 18 18 18 18 19 19
23 24 23 23 22 23 22 20 20 21 18 18 18 18 18 18 17 17 20 20 20 20 20 19 19 19 19 19 19 18 18 18 18 18 18 18 18 18 18 18 18 18 18 18 18 18 18 18 19
24 24 25 22 22 23 22 23 22 19 20 19 18 18 18 18 18 18 20 20 20 20 20 19 19 19 19 19 19 18 18 18 18 18 18 18 18 18 18 17 18 18 18 18 18 18 19 18 19
23 25 24 22 22 23 22 23 21 20 20 19 18 19 19 18 18 18 19 20 20 20 20 20 20 19 19 19 19 19 18 18 18 18 18 18 18 18 18 18 18 18 18 18 18 18 18 19 19
24 24 24 24 23 22 24 22 21 20 20 19 19 19 19 19 19 19 19 20 20 20 20 20 20 19 19 19 19 19 19 18 18 18 18 18 18 18 18 18 18 18 18 18 18 19 19 19 19
24 24 24 24 24 23 25 24 23 20 20 20 20 19 20 20 19 19 20 20 20 20 20 20 20 19 19 19 19 19 19 19 18 18 18 18 18 18 18 18 18 18 18 18 19 19 19 19 19
24 24 24 24 24 24 24 24 22 21 21 20 20 20 20 20 19 19 19 19 20 21 20 20 20 20 20 20 20 20 20 19 19 18 18 18 18 18 18 18 18 18 18 19 19 19 19 19 19
23 24 23 25 23 23 23 23 22 21 20 20 20 20 20 20 20 19 19 19 20 20 20 20 20 20 20 20 20 20 19 19 19 19 19 18 18 18 18 18 18 19 19 19 19 19 19 19 20
23 23 24 24 24 25 23 26 22 21 21 20 20 20 20 20 20 20 20 19 20 21 21 20 20 20 19 19 19 20 20 20 20 19 19 19 18 18 18 18 19 19 19 19 19 19 19 20 20
23 23 24 24 24 24 23 26 22 21 21 21 21 20 20 20 21 21 20 20 21 21 21 21 20 20 19 19 19 20 19 20 20 20 19 19 19 19 18 18 18 18 18 19 19 19 19 20 20
23 22 22 22 24 25 24 25 21 20 18 20 20 20 20 19 20 21 21 20 21 21 21 21 21 21 20 20 19 19 19 19 20 20 19 19 19 19 19 19 19 19 18 19 19 19 20 20 20
23 24 23 23 23 25 21 24 19 19 18 17 18 18 18 20 20 20 21 20 21 21 22 22 21 21 21 20 20 20 20 19 19 20 20 20 19 19 19 19 19 18 19 18 19 19 19 20 20
23 24 24 22 23 24 21 22 17 19 18 17 16 16 16 17 19 20 20 21 21 22 22 22 22 22 21 21 21 20 20 20 19 20 20 20 20 20 19 19 19 18 18 19 18 19 19 19 19
21 22 21 22 19 25 23 20 19 20 19 17 15 14 14 16 18 20 20 20 20 21 22 22 22 22 22 22 21 20 20 20 20 20 20 20 20 20 20 19 19 19 18 19 19 19 19 19 19
20 18 22 22 22 23 20 19 19 17 17 17 15 14 14 15 19 20 20 20 20 20 21 22 22 22 22 22 22 21 21 20 20 20 20 20 20 20 20 19 19 19 19 19 19 19 19 19 19
19 19 18 21 20 23 22 19 17 15 15 15 14 13 13 13 15 15 18 20 20 20 21 21 21 22 22 22 22 22 22 21 21 20 20 20 20 20 20 20 20 19 19 19 19 19 19 19 19
16 15 16 22 20 19 22 18 15 14 13 14 14 13 12 12 13 14 15 17 17 16 18 20 20 21 21 21 21 21 21 21 21 21 21 20 20 20 20 20 20 20 20 19 19 19 19 19 19
Height
1518 1519 1520 1520 1525 1524 1528 1523 1518 1520 1522 1524 1528 1530 1530 1532 1534 1540 1541 1547 1552 1555 1559 1562 1564 1566 1568 1569 1570 1571 1572 1573 1573 1574 1575 1576 1577 1578 1579 1580 1580 1582 1582 1583 1583 1583 1584 1584 1584
1519 1519 1521 1520 1524 1528 1527 1520 1520 1517 1520 1525 1527 1530 1532 1535 1537 1538 1542 1548 1554 1557 1560 1563 1566 1567 1568 1570 1571 1572 1574 1575 1576 1576 1576 1577 1578 1579 1581 1581 1582 1582 1584 1585 1585 1586 1587 1587 1587
1519 1520 1521 1518 1523 1525 1524 1520 1519 1519 1521 1525 1528 1532 1534 1538 1539 1543 1546 1549 1555 1559 1562 1564 1566 1569 1570 1571 1573 1574 1576 1577 1578 1578 1579 1579 1580 1581 1582 1583 1584 1585 1586 1587 1588 1589 1589 1589 1589
1519 1521 1522 1519 1520 1525 1525 1521 1518 1522 1525 1526 1528 1534 1538 1537 1542 1543 1548 1553 1557 1560 1564 1566 1568 1570 1572 1573 1575 1576 1577 1578 1579 1580 1580 1581 1581 1582 1584 1585 1585 1586 1587 1588 1590 1591 1592 1592 1593
1519 1520 1519 1516 1522 1523 1524 1522 1520 1523 1525 1528 1529 1537 1539 1542 1543 1545 1549 1555 1559 1562 1565 1568 1570 1571 1573 1575 1576 1577 1578 1579 1581 1582 1582 1582 1583 1584 1585 1587 1587 1588 1589 1590 1592 1594 1594 1595 1595
1520 1520 1519 1519 1520 1524 1524 1525 1523 1525 1528 1530 1532 1535 1542 1543 1546 1549 1553 1557 1562 1564 1567 1569 1571 1573 1574 1576 1578 1579 1580 1581 1583 1583 1584 1585 1585 1586 1588 1589 1589 1590 1591 1593 1594 1596 1597 1597 1597
1519 1518 1518 1515 1518 1523 1525 1526 1527 1527 1529 1532 1534 1537 1544 1545 1549 1552 1556 1560 1563 1566 1568 1570 1572 1574 1576 1578 1579 1581 1582 1584 1585 1585 1586 1587 1588 1589 1590 1591 1592 1592 1594 1595 1597 1599 1600 1599 1600
1519 1518 1519 1515 1516 1523 1523 1524 1530 1528 1531 1532 1534 1537 1542 1544 1549 1554 1558 1562 1565 1566 1569 1571 1573 1575 1577 1579 1581 1582 1585 1585 1587 1588 1588 1589 1591 1592 1593 1594 1595 1595 1597 1598 1600 1601 1601 1602 1602
1519 1518 1520 1515 1515 1519 1521 1523 1526 1527 1530 1532 1535 1535 1540 1544 1549 1555 1559 1563 1565 1567 1569 1572 1574 1576 1578 1580 1582 1585 1587 1588 1589 1590 1590 1591 1593 1595 1596 1596 1597 1598 1600 1601 1603 1604 1604 1604 1604
1518 1517 1517 1513 1514 1517 1521 1522 1526 1529 1530 1534 1535 1537 1541 1547 1551 1555 1558 1561 1566 1567 1569 1572 1575 1577 1579 1582 1584 1586 1588 1590 1590 1591 1592 1593 1595 1596 1597 1599 1600 1601 1602 1604 1605 1606 1607 1607 1607
1518 1516 1514 1515 1516 1519 1521 1524 1526 1528 1529 1530 1532 1536 1541 1547 1552 1556 1559 1562 1565 1568 1570 1573 1575 1578 1580 1583 1585 1587 1589 1591 1592 1593 1594 1595 1597 1598 1599 1601 1602 1603 1604 1606 1607 1608 1609 1610 1610
1518 1516 1515 1516 1518 1519 1520 1525 1526 1529 1529 1528 1532 1536 1540 1547 1553 1557 1559 1562 1565 1568 1571 1574 1576 1578 1581 1584 1586 1589 1591 1593 1594 1595 1596 1597 1598 1600 1602 1603 1604 1605 1606 1608 1609 1611 1611 1612 1612
1518 1515 1515 1517 1519 1520 1521 1522 1526 1529 1529 1531 1534 1540 1544 1548 1554 1558 1561 1563 1567 1570 1572 1575 1577 1579 1582 1585 1588 1590 1593 1595 1596 1597 1597 1599 1600 1602 1603 1605 1606 1607 1609 1610 1611 1612 1613 1614 1614
1514 1514 1514 1516 1518 1520 1521 1521 1526 1528 1529 1534 1537 1541 1546 1549 1553 1557 1560 1562 1566 1571 1573 1576 1578 1581 1583 1587 1589 1592 1594 1596 1598 1599 1599 1601 1602 1604 1605 1606 1608 1609 1610 1612 1613 1614 1615 1615 1616
1513 1513 1513 1515 1517 1518 1521 1525 1524 1526 1529 1534 1539 1544 1548 1552 1554 1557 1559 1563 1566 1570 1573 1576 1579 1582 1585 1588 1591 1593 1595 1598 1599 1601 1601 1602 1604 1605 1606 1608 1608 1610 1611 1613 1615 1616 1617 1617 1617
1511 1511 1512 1517 1517 1518 1521 1520 1521 1525 1529 1534 1538 1543 1547 1551 1554 1558 1560 1563 1566 1569 1573 1576 1580 1583 1586 1589 1592 1595 1597 1598 1599 1601 1602 1604 1604 1605 1606 1608 1609 1610 1612 1613 1616 1617 1618 1619 1619
1512 1512 1513 1518 1516 1517 1519 1518 1523 1526 1529 1533 1537 1541 1546 1550 1554 1557 1560 1563 1566 1569 1573 1576 1580 1584 1587 1590 1593 1596 1598 1600 1600 1602 1604 1604 1605 1606 1607 1608 1609 1611 1613 1615 1617 1618 1619 1620 1621
1513 1514 1514 1515 1516 1516 1515 1518 1522 1527 1529 1533 1537 1541 1545 1549 1553 1557 1560 1563 1567 1569 1573 1577 1580 1584 1588 1590 1593 1595 1598 1599 1600 1602 1604 1605 1606 1607 1608 1608 1610 1612 1614 1616 1617 1619 1620 1621 1622
1508 1510 1513 1512 1512 1516 1513 1514 1518 1524 1527 1531 1536 1538 1543 1547 1552 1556 1559 1563 1567 1570 1572 1576 1580 1583 1586 1590 1592 1595 1597 1599 1601 1603 1604 1605 1606 1608 1608 1609 1611 1613 1615 1616 1618 1619 1621 1622 1623
1509 1511 1515 1514 1513 1515 1516 1516 1517 1520 1523 1527 1531 1537 1542 1546 1551 1554 1558 1562 1566 1569 1573 1576 1579 1583 1586 1589 1592 1595 1597 1599 1601 1602 1604 1605 1606 1608 1609 1610 1612 1614 1616 1617 1619 1620 1622 1623 1624
1512 1512 1516 1515 1515 1515 1515 1519 1518 1522 1525 1527 1531 1536 1541 1544 1548 1552 1556 1560 1564 1568 1572 1575 1579 1582 1585 1589 1591 1594 1597 1599 1600 1602 1603 1604 1606 1608 1609 1610 1613 1615 1617 1618 1620 1621 1622 1624 1625
1514 1511 1512 1515 1517 1519 1517 1521 1524 1523 1526 1531 1535 1538 1539 1542 1545 1549 1553 1556 1560 1564 1569 1573 1577 1581 1585 1588 1590 1592 1596 1598 1599 1601 1603 1604 1606 1607 1609 1611 1613 1615 1617 1618 1620 1622 1623 1624 1625
1510 1509 1512 1514 1516 1519 1520 1518 1532 1525 1531 1534 1535 1537 1540 1541 1544 1546 1549 1553 1557 1562 1566 1571 1575 1579 1583 1586 1589 1592 1594 1597 1599 1601 1602 1604 1606 1607 1608 1610 1612 1615 1616 1619 1620 1622 1623 1624 1625
1508 1512 1516 1518 1517 1524 1520 1518 1536 1537 1541 1534 1534 1534 1536 1537 1538 1542 1547 1551 1554 1558 1562 1567 1571 1575 1580 1583 1586 1590 1592 1595 1597 1600 1601 1603 1605 1607 1608 1610 1612 1614 1616 1618 1620 1621 1622 1624 1625
1507 1510 1524 1529 1528 1523 1526 1521 1546 1541 1541 1540 1536 1533 1532 1532 1534 1537 1541 1544 1548 1553 1557 1562 1566 1571 1576 1580 1583 1586 1590 1593 1596 1599 1600 1601 1604 1606 1607 1609 1611 1613 1615 1617 1618 1620 1621 1623 1625
1505 1503 1510 1529 1530 1520 1527 1533 1549 1544 1543 1540 1536 1532 1528 1525 1525 1528 1532 1538 1542 1548 1553 1557 1561 1566 1572 1576 1580 1583 1586 1589 1593 1596 1599 1601 1603 1605 1606 1608 1610 1611 1612 1615 1617 1618 1620 1622 1623
1510 1509 1514 1517 1530 1514 1523 1537 1539 1540 1541 1539 1537 1533 1526 1519 1514 1521 1529 1534 1537 1542 1547 1553 1558 1562 1567 1572 1576 1580 1583 1586 1588 1592 1595 1599 1602 1604 1605 1606 1608 1609 1611 1612 1615 1616 1618 1620 1621
1509 1518 1514 1512 1528 1524 1535 1538 1542 1544 1542 1540 1537 1532 1528 1520 1515 1521 1526 1532 1536 1540 1545 1550 1554 1557 1562 1567 1571 1576 1579 1583 1586 1589 1592 1595 1598 1601 1604 1606 1607 1608 1609 1611 1613 1614 1616 1617 1619
1518 1516 1520 1514 1520 1514 1528 1541 1547 1551 1550 1547 1544 1540 1534 1528 1524 1523 1525 1530 1536 1537 1540 1544 1549 1553 1557 1562 1567 1571 1575 1579 1583 1585 1588 1592 1595 1598 1601 1603 1605 1606 1608 1609 1611 1613 1614 1615 1616
1529 1529 1527 1509 1526 1526 1512 1546 1551 1552 1552 1550 1548 1545 1540 1534 1531 1529 1528 1529 1531 1537 1540 1543 1546 1549 1552 1556 1561 1566 1571 1575 1579 1581 1584 1588 1591 1594 1597 1600 1602 1603 1605 1607 1608 1610 1611 1612 1613
Wind_Speed
8 7 6 2 1 2 2 2 1 8 9 7 21 7 12 6 2 1 22 30 29 27 22 18 16 15 13 11 10 10 9 9 8 7 6 5 5 5 6 5 6 7 8 8 9 10 12 13 14
9 7 3 2 1 0 2 6 9 3 14 25 11 17 5 4 2 12 32 31 30 25 21 18 16 13 12 10 9 8 7 8 8 8 7 6 5 5 6 6 7 8 8 9 10 12 12 14 15
9 5 1 1 2 1 3 8 6 11 25 18 7 7 4 3 4 26 28 35 29 24 19 17 14 11 9 8 7 7 7 8 7 8 8 7 7 6 6 7 7 7 8 8 10 12 12 11 11
5 1 1 1 2 2 2 6 11 19 16 7 13 8 5 2 21 19 36 33 27 22 18 15 12 11 10 9 7 7 8 8 9 8 8 8 9 12 9 9 7 8 9 10 11 11 11 10 11
5 1 1 1 4 3 3 7 9 15 7 8 4 5 8 7 14 33 34 31 26 22 18 14 12 11 11 9 8 8 8 8 9 10 9 8 12 12 12 10 9 11 11 12 13 12 10 11 12
1 1 1 2 6 4 4 8 3 6 4 5 10 11 6 10 24 32 31 28 24 21 18 14 12 11 10 9 8 9 9 10 9 10 10 10 12 12 11 10 9 10 12 14 14 13 10 9 11
0 1 2 1 3 5 4 4 8 5 7 5 12 7 10 17 32 31 29 25 23 20 18 14 13 12 10 9 9 10 10 10 9 10 10 11 11 12 11 11 11 11 14 15 14 13 12 12 11
1 2 1 1 1 3 8 6 1 6 3 9 12 7 13 24 34 30 26 24 22 20 17 15 13 12 11 11 11 11 11 10 9 9 10 11 12 12 12 11 10 12 14 14 14 13 12 12 12
2 1 2 1 2 6 8 5 4 4 5 3 6 12 21 30 34 26 24 21 20 20 17 16 13 12 13 12 11 12 10 9 9 9 9 10 11 11 11 11 10 11 14 13 13 13 13 11 11
2 0 1 3 4 9 9 11 5 2 8 5 14 19 30 31 31 27 24 23 20 20 18 16 14 13 15 13 13 13 11 9 9 8 9 10 10 11 11 11 8 11 14 12 12 12 12 10 10
4 1 2 3 9 15 9 12 9 7 6 8 21 31 33 31 29 25 24 23 23 21 18 17 15 14 14 14 14 13 12 12 10 10 10 9 9 9 9 10 10 11 12 11 11 10 10 10 9
3 6 2 2 10 8 8 13 10 8 3 5 24 34 35 32 28 25 23 24 22 21 18 16 15 14 14 13 14 14 13 13 10 9 9 9 8 8 8 9 10 10 11 10 9 8 9 10 9
7 3 2 9 14 11 11 6 7 7 6 16 28 29 30 29 25 22 23 22 21 19 19 17 16 15 15 14 14 15 13 11 8 8 8 9 8 8 8 8 9 9 10 10 6 6 6 9 7
4 9 7 10 15 11 10 6 8 9 13 19 27 29 28 26 26 22 24 23 21 18 18 17 16 16 16 15 16 15 14 12 10 9 7 7 9 8 8 8 7 6 7 7 5 5 6 6 6
2 4 6 7 12 6 8 4 4 12 18 21 25 25 25 23 23 24 24 22 21 19 18 18 17 17 17 18 16 14 12 10 8 6 5 4 5 8 7 5 6 7 7 6 5 5 3 4 4
3 2 3 3 13 4 10 2 9 16 20 22 25 26 26 24 24 23 22 20 21 20 19 19 19 18 18 19 16 13 12 10 7 6 4 5 4 5 7 7 8 8 5 7 8 5 2 2 5
1 4 3 4 11 3 10 2 10 18 19 23 24 26 26 26 24 24 22 18 19 19 20 21 20 19 19 17 15 13 11 9 6 5 3 5 5 6 6 8 9 8 10 10 7 5 4 3 3
7 5 4 4 10 5 10 4 7 15 17 21 24 24 25 26 26 24 22 19 17 21 20 22 23 21 19 18 16 13 11 9 7 5 3 4 7 7 6 8 9 10 10 9 8 6 5 4 2
7 6 5 2 4 6 6 6 7 13 16 19 24 26 25 25 26 24 24 22 19 22 23 25 25 23 21 17 15 13 11 9 7 6 4 5 8 7 7 8 10 10 9 7 7 7 5 3 3
4 5 4 2 3 6 3 3 4 11 13 18 23 23 25 24 23 24 25 24 23 24 25 27 26 24 19 17 13 12 11 8 6 8 5 7 9 8 9 8 8 9 7 7 9 8 5 2 2
5 5 4 3 1 1 1 0 4 1 5 11 16 20 22 24 26 24 25 26 27 27 28 28 27 25 20 17 15 14 11 10 9 8 6 7 7 8 9 8 9 7 7 9 8 5 3 3 2
9 7 4 3 2 3 3 3 7 6 4 3 9 17 20 24 24 25 26 27 28 31 30 30 28 27 24 20 18 17 14 12 11 8 6 3 5 7 7 10 8 7 5 9 7 5 4 4 2
3 5 6 3 4 2 4 2 6 5 7 7 8 11 18 20 24 27 28 29 31 30 31 31 31 29 28 25 22 17 18 13 10 9 8 6 4 4 5 7 8 5 5 9 7 5 3 2 2
10 6 4 3 2 6 3 2 5 6 9 11 10 6 14 20 26 25 26 27 32 30 33 34 33 32 30 28 25 23 19 17 15 13 12 10 6 4 7 7 7 7 5 8 9 7 7 6 5
7 8 5 6 5 5 3 5 5 7 11 11 14 13 11 13 24 30 29 29 33 35 31 34 36 34 31 30 29 26 22 21 19 16 14 13 11 7 6 9 7 7 8 8 7 8 9 8 7
11 10 5 11 9 7 0 8 5 7 11 14 15 17 15 14 20 31 36 34 36 35 37 34 34 35 33 31 30 27 23 20 23 20 17 15 12 9 8 9 9 6 5 7 8 7 9 10 8
5 6 2 5 1 9 5 6 4 11 15 19 21 21 22 21 13 25 28 30 32 38 37 38 35 36 37 32 30 29 25 22 22 21 20 18 14 11 11 9 8 8 6 5 8 8 8 9 11
3 3 5 2 9 10 4 4 5 12 16 17 23 27 26 25 13 9 17 23 26 29 33 35 35 37 37 36 32 29 27 25 21 22 25 20 18 15 13 12 11 8 8 8 7 7 9 9 10
2 2 3 1 2 6 7 5 5 9 10 14 21 24 25 28 25 18 5 11 18 30 33 32 34 34 36 41 39 34 29 27 24 22 26 26 20 20 18 16 13 13 12 11 10 7 6 7 9
7 4 1 5 5 2 0 5 4 9 13 15 19 23 25 30 30 23 16 7 4 7 21 30 29 30 33 36 41 40 35 30 29 25 24 25 28 23 21 19 16 15 16 16 14 12 11 11 9
Wind_Direction
149 143 139 133 115 195 192 52 242 118 144 145 143 150 145 135 176 75 145 159 159 153 152 145 142 139 135 127 129 124 112 110 111 116 124 128 138 143 124 135 134 126 123 114 109 98 96 96 94
145 148 137 121 91 112 71 32 20 138 146 145 121 132 111 101 79 142 148 155 158 153 151 149 148 145 138 130 124 113 106 110 108 106 108 114 120 134 146 136 135 139 131 122 112 101 101 95 96
147 138 188 125 112 151 102 26 353 127 137 147 114 102 76 67 125 144 156 154 159 156 154 149 155 156 150 139 131 127 121 118 116 120 119 109 120 133 132 148 137 136 133 126 110 105 101 100 105
147 82 310 235 124 59 35 339 139 134 132 91 121 72 71 231 139 154 153 158 160 155 155 155 159 163 165 159 150 134 129 125 118 107 107 99 98 119 106 120 140 132 132 133 121 118 114 97 101
149 143 226 269 84 88 50 24 131 145 142 111 103 104 107 124 155 154 155 161 163 160 159 156 146 147 157 154 148 140 132 118 114 111 110 107 102 116 108 115 119 124 133 132 126 121 109 98 101
139 268 347 37 114 95 48 1 104 98 108 109 102 110 112 142 156 153 155 161 166 162 161 156 153 157 154 159 151 140 130 121 112 114 113 110 107 115 113 109 113 129 130 133 126 116 104 101 104
9 314 62 359 107 125 136 34 38 48 122 109 134 107 135 147 159 155 156 161 163 163 164 162 161 155 150 148 144 138 130 126 121 117 115 108 113 110 108 111 110 125 131 128 119 109 99 100 94
243 311 86 259 218 122 168 119 61 61 101 130 147 157 167 162 160 157 157 161 161 165 166 164 158 155 149 151 148 140 132 126 124 122 121 118 114 112 108 108 115 125 128 123 114 106 105 99 85
280 275 54 336 246 142 158 131 51 358 146 138 177 151 162 157 158 155 156 160 163 164 166 164 159 154 150 148 145 140 136 126 122 123 125 131 126 119 108 110 108 125 131 125 113 108 102 86 89
252 280 8 324 95 143 143 99 87 121 144 76 110 136 152 156 159 160 164 164 168 169 166 163 158 155 154 148 149 144 141 135 126 120 125 126 129 127 120 106 108 120 136 128 113 110 95 84 74
188 245 221 70 109 138 124 123 148 197 191 186 153 148 155 160 164 168 170 171 174 172 167 163 163 161 160 156 154 151 142 132 128 120 116 124 130 134 131 124 119 119 134 128 118 106 92 80 75
222 257 231 113 145 139 153 137 156 197 353 161 157 156 157 164 169 174 174 175 177 176 170 169 168 166 165 158 154 148 142 134 129 118 113 119 132 135 135 124 119 121 130 132 121 105 84 80 83
238 280 232 180 173 161 153 163 163 163 104 137 149 156 162 167 173 178 178 178 181 179 172 172 169 166 163 159 157 151 149 144 135 126 112 118 125 128 139 135 129 129 136 134 123 110 87 76 81
209 256 277 181 177 175 185 158 158 163 149 151 157 162 170 174 176 177 181 182 183 179 178 173 171 169 163 161 158 148 143 139 131 124 126 124 124 128 143 143 138 153 155 144 135 124 102 74 89
265 273 115 202 180 177 187 160 218 168 157 159 169 169 176 180 182 186 182 184 183 180 182 177 173 173 166 160 159 159 147 139 130 136 140 146 133 174 164 175 189 173 183 198 168 142 106 69 79
227 226 182 146 185 209 196 113 159 166 169 174 175 177 179 184 190 188 183 183 186 185 185 180 176 173 168 162 157 153 150 144 138 114 134 142 169 149 181 189 179 189 195 171 163 154 152 91 82
107 172 102 138 189 157 206 70 149 166 172 176 180 185 186 187 193 193 188 183 188 187 185 181 174 169 168 172 165 163 160 150 147 122 112 151 138 146 164 176 182 187 169 167 174 182 180 153 95
163 144 105 122 186 229 202 229 132 172 185 187 189 187 188 192 195 197 195 193 196 192 189 184 175 167 167 169 172 178 181 181 189 155 138 157 154 136 140 159 172 168 172 178 169 175 160 141 42
130 129 109 74 162 204 240 256 206 178 188 194 194 194 193 193 196 199 201 203 203 197 189 184 183 180 181 188 190 195 196 190 200 190 163 148 163 153 139 142 157 160 166 163 181 176 169 127 63
145 144 118 54 49 223 278 294 335 189 194 192 190 194 197 195 194 199 201 208 206 201 194 192 188 190 193 199 195 196 193 186 183 181 170 160 169 154 164 152 151 158 166 164 156 150 147 122 51
153 193 163 126 358 157 230 88 355 109 189 188 191 197 199 197 197 199 203 211 214 211 207 203 201 200 200 201 193 191 193 193 183 179 168 164 165 158 160 164 160 179 185 179 173 165 156 143 64
202 199 182 169 222 162 296 143 52 341 232 238 190 203 204 206 204 202 205 211 216 216 216 214 213 213 211 211 204 200 208 202 191 184 180 173 157 167 158 167 167 174 177 179 175 171 149 156 114
205 169 193 188 185 224 175 217 10 55 57 345 231 225 218 217 214 210 209 213 218 220 223 222 221 222 222 220 220 214 214 217 206 193 194 200 178 185 188 174 175 184 198 188 193 194 214 210 217
147 102 82 99 179 201 119 268 39 22 351 346 344 326 232 219 217 217 217 218 223 228 229 227 227 227 228 226 227 228 226 225 219 211 203 206 209 209 201 181 190 190 199 207 218 226 223 244 276
191 176 151 179 191 186 98 100 49 24 11 358 345 336 310 253 225 217 216 215 225 228 230 229 230 230 230 229 229 232 233 233 236 233 222 210 213 219 223 208 205 213 207 216 220 224 222 235 259
183 203 201 184 189 160 181 141 81 50 25 17 10 351 338 295 242 222 217 217 225 229 232 234 229 229 230 229 230 229 235 238 235 237 234 222 214 217 228 218 210 218 209 227 218 219 223 231 246
147 197 22 108 75 185 127 102 182 36 25 23 16 11 7 352 250 219 221 218 218 229 231 233 234 231 231 230 230 231 232 236 235 234 227 228 223 221 221 221 219 224 234 219 225 236 229 236 248
16 95 171 202 167 177 126 124 64 14 14 16 15 11 14 21 39 201 220 221 220 225 232 235 237 239 237 232 231 233 234 237 240 237 230 232 227 224 218 229 233 236 236 231 229 230 237 248 249
17 108 58 95 333 183 161 123 22 50 28 28 24 17 20 32 42 52 85 223 225 231 237 237 238 242 241 237 235 233 235 237 239 242 236 235 233 228 227 226 238 245 237 232 231 233 244 257 261
37 56 359 231 178 63 19 112 47 67 44 35 39 31 30 44 49 58 64 118 166 204 236 239 244 244 245 241 239 238 238 238 240 242 240 238 238 236 231 229 234 235 234 236 241 246 258 262 270